Regional Weather Roundup
Issued by NWS

Home | Current Version | Previous Version | Graphics & Text | Print | Product List | Glossary On
Versions: 1 2 3 4 5 6 7 8 9 10 11 12 13 14 15 16 17 18 19 20 21 22 23 24 25 26 27 28 29 30 31 32 33 34 35 36 37 38 39 40 41 42 43 44 45 46 47 48 49 50
000
ASUS43 KMPX 040010
RWRMN
WEATHER ROUNDUP FOR MINNESOTA
NATIONAL WEATHER SERVICE TWIN CITIES/CHANHASSEN MN
700 PM CDT THU SEP 03 2015


NOTE: "FAIR" INDICATES FEW OR NO CLOUDS BELOW 12,000 FEET WITH NO
SIGNIFICANT WEATHER AND/OR OBSTRUCTIONS TO VISIBILITY. N/A MEANS
CURRENT SKY AND/OR WEATHER CONDITIONS ARE NOT AVAILABLE.

MNZ060>063-068>070-040100-
   Twin Cities Metro

CITY           SKY/WX    TMP DP  RH WIND       PRES   REMARKS
TWIN CITIES    PTCLDY    82  72  71 E13       29.87R
6HR MIN TEMP:  81; 6HR MAX TEMP:  84;

ST PAUL        CLEAR     81  72  74 E13       29.87S
CRYSTAL        CLEAR     83  71  67 E9        29.85S
BLAINE         CLEAR     84  73  70 E10       29.87  HX  91
LAKEVILLE      CLEAR     79  73  83 E7        29.87S
EDEN PRAIRIE   CLEAR     82  73  74 E10       29.85S
6HR MIN TEMP:  80; 6HR MAX TEMP:  86;

SOUTH ST PAUL  CLEAR     82  71  68 E8        29.87S
LAKE ELMO      FAIR      79  72  78 E7        29.89F
$$
MNZ001>005-007-008-013>017-022>024-027-028-040100-
   Northwest Minnesota

CITY           SKY/WX    TMP DP  RH WIND       PRES   REMARKS
BEMIDJI        CLEAR     79  67  66 SE16      29.85S
HALLOCK        CLEAR     90  70  51 SE21G26   29.69S HX  95
ROSEAU         CLEAR     82  72  69 SE16      29.78S
WARROAD        CLEAR     82  70  65 SE14G21   29.80S
THIEF RVR FALL CLEAR     84  70  61 SE12      29.77R
CROOKSTON      PTCLDY    88  72  58 S16       29.74S HX  94
FOSSTON        CLEAR     84  68  58 SE8       29.81S
DETROIT LAKES  CLEAR     82  72  69 SE12G18   29.83S
MOORHEAD       CLEAR     88  73  62 SE14G22   29.74F HX  96
PARK RAPIDS    CLEAR     82  69  64 SE14G21   29.86S
MAHNOMEN       FAIR      83  72  69 SE10G20   29.79F
$$
MNZ006-009>011-018-025>026-040100-
   North Central Minnesota

CITY           SKY/WX    TMP DP  RH WIND       PRES   REMARKS
BAUDETTE       CLEAR     81  64  56 SE15G23   29.83S
FLAG ISLAND    CLEAR     79  64  61 SE15      29.79F
INTL FALLS     CLEAR     78  64  61 SE9       29.88F
6HR MIN TEMP:  78; 6HR MAX TEMP:  84;

WASKISH        CLEAR     79  64  61 E10G16    29.85S
BIG FORK       CLEAR     75  61  60 SE7       29.91S
LONGVILLE      CLEAR     79  68  69 E5        29.88F
GRAND RAPIDS     N/A     75  63  64 SE9       29.92S
CRANE LAKE     CLEAR     75  63  64 S1        29.94
ORR            CLEAR     77  61  57 SE8       29.90F
COOK           CLEAR     75  61  60 SE7       29.95R
WALKER         FAIR      78  68  71 SE7       29.87S
$$
MNZ012-019>021-037-040100-
   Northeast Minnesota

CITY           SKY/WX    TMP DP  RH WIND       PRES   REMARKS
DULUTH         CLEAR     65  53  65 E9        29.96S
6HR MIN TEMP:  62; 6HR MAX TEMP:  72;

ELY            CLEAR     73  55  53 SE5       29.97S
HIBBING        CLEAR     73  60  63 SE10      29.94S
EVELETH        CLEAR     72  57  60 CALM      29.97R
DULUTH HARBOR  CLEAR     61  57  88 NE7       29.96S
TWO HARBORS    CLEAR     68  57  68 E8        29.96S
SILVER BAY     CLEAR     66  54  63 NE5       29.97R
GRAND MARAIS     N/A     61  55  81 NE6       29.97F
G MARAIS ARPRT CLEAR     66  50  55 NE3       30.03S
$$
MNZ029>031-032-039>041-046>048-054>057-064-040100-
   West Central Minnesota

CITY           SKY/WX    TMP DP  RH WIND       PRES   REMARKS
FERGUS FALLS   CLEAR     84  73  70 SE12G18   29.77F HX  91
MORRIS         CLEAR     86  75  70 CALM      29.79S HX  95
ALEXANDRIA     CLEAR     82  74  76 SE12      29.85F
ELBOW LAKE     FAIR      83  74  73 SE10      29.80F HAZE    HX  90
WADENA         PTCLDY    81  72  74 SE15      29.85S
GLENWOOD       CLEAR     82  73  74 E9        29.85S
APPLETON       CLEAR     88  73  62 E9        29.78S HX  96
BENSON         CLEAR     86  72  62 SE9       29.80S HX  92
ORTONVILLE     CLEAR     86  73  66 SE10G16   29.77F HX  93
MADISON        CLEAR     84  73  70 SE7       29.78S HX  91
WILLMAR        FAIR      84  77  79 E10       29.84R HX  94
$$
MNZ033>034-036-042>043-049>051-058-059-040100-
   Central Minnesota

CITY           SKY/WX    TMP DP  RH WIND       PRES   REMARKS
ST CLOUD       CLEAR     80  72  76 E8        29.86S
6HR MIN TEMP:  80; 6HR MAX TEMP:  85;

SAUK CENTRE    FAIR      81  73  78 E10       29.85S
PAYNESVILLE    PTCLDY    83  73  72 NE8       29.85S
AITKIN         CLEAR     79  66  65 CALM      29.89S
PINE RIVER     CLEAR     79  70  73 SE9       29.91S
BRAINERD       CLEAR     79  68  69 VRB7      29.88F
STAPLES        PTCLDY    81  70  69 SE6       29.87R
LONG PRAIRIE   CLOUDY    79  72  78 E7        29.87S
LITTLE FALLS   PTCLDY    79  68  69 SE8       29.88R
LITCHFIELD     CLEAR     82  77  83 E10       29.85R HX  91
BUFFALO        CLEAR     82  72  71 E6        29.87S
MAPLE LAKE     CLEAR     82  74  79 E8        29.87S
$$
MNZ037-044-045-052-053-040100-
   East Central Minnesota

CITY           SKY/WX    TMP DP  RH WIND       PRES   REMARKS
PRINCETON      CLEAR     81  72  74 E7        29.88S
MORA           CLEAR     77  64  65 E6        29.91S
CAMBRIDGE      CLEAR     82  66  57 E5        29.88R
RUSH CITY      CLEAR     78  68  70 E3        29.89S
MOOSE LAKE     CLEAR     68  61  77 NE7       29.91F
HINCKLEY       FAIR      79  70  73 E5        29.90F
CLOQUET        CLEAR     64  54  68 E5        29.96S
MCGREGOR       CLEAR     73  66  78 E12       29.92R
$$
MNZ071>073-080-081-089-090-097-098-040100-
   Southwest Minnesota

CITY           SKY/WX    TMP DP  RH WIND       PRES   REMARKS
MONTEVIDEO     CLEAR     88  73  62 SE9       29.81S HX  96
GRANITE FALLS  CLEAR     86  76  71 E7        29.81S HX  95
CANBY          CLEAR     84  73  68 SE9       29.79S HX  91
MARSHALL       CLEAR     86  72  62 SE12      29.81S HX  92
REDWOOD FALLS  CLEAR     86  75  69 SE8       29.80S HX  95
OLIVIA         CLEAR     82  72  69 E9        29.82R
PIPESTONE      CLEAR     82  72  69 S7        29.82S
WINDOM         CLEAR     84  72  65 SE7       29.83S
WORTHINGTON    PTCLDY    82  72  69 SE7       29.83S
JACKSON        CLEAR     84  73  70 SE8       29.84S HX  91
TRACY          CLEAR     85  76  75 SE6       29.82S HX  94
SLAYTON        CLEAR     83  74  75 SE7       29.83S
$$
MNZ065>067-074>077-082>085-091>093-040100-
   South Central Minnesota

CITY           SKY/WX    TMP DP  RH WIND       PRES   REMARKS
MANKATO        CLEAR     84  75  74 E9        29.84S HX  92
NEW ULM        CLEAR     84  73  70 SE7       29.82S HX  91
ST JAMES       CLEAR     86  75  70 SE6       29.83S HX  95
FAIRMONT       CLEAR     84  68  58 SE8       29.83S
GLENCOE        CLEAR     84  77  81 E10       29.84S HX  93
FARIBAULT      CLEAR     82  77  83 E7        29.87R HX  91
OWATONNA       CLEAR     84  73  70 E6        29.87S HX  91
WASECA         CLEAR     82  73  74 E6        29.87S
ALBERT LEA     CLEAR     84  73  70 SE7       29.86S HX  91
$$
MNZ078>079-086>088-094>096-040100-
   Southeast Minnesota

CITY           SKY/WX    TMP DP  RH WIND       PRES   REMARKS
ROCHESTER      PTCLDY    83  75  77 SE7       29.89S HX  90
6HR MIN TEMP:  83; 6HR MAX TEMP:  88;

RED WING       CLEAR     82  72  69 E7        29.86F
STANTON        CLEAR     82  73  75 E7        29.86S
DODGE CENTER   CLEAR     82  73  74 SE5       29.89S
WINONA         CLEAR     82  72  69 E6        29.88F
AUSTIN         CLEAR     82  75  78 SE3       29.87S
PRESTON        PTCLDY    84  73  69 CALM      29.90S
$$
ABBREVIATIONS USED IN REMARKS
   TC - TEMPERATURES IN CELSIUS
  WCI - WIND CHILL INDEX
   HX - HEAT INDEX
  VSB - VISIBILITY
$$


USA.gov is the U.S. government's official web portal to all federal, state and local government web resources and services.